Other Public Products
Issued by NWS Grand Forks, ND

Home | Current Version | Previous Version | Graphics & Text | Print | Product List | Glossary On
Versions: 1 2 3 4 5 6 7 8 9 10 11 12 13 14 15 16 17 18 19 20 21 22 23 24 25 26 27 28 29 30 31 32 33 34 35 36 37 38 39 40 41 42 43 44 45 46 47 48 49 50
000
FPUS83 KFGF 210431
OPUFGF
PRAIRIE TO PINES WEATHER ROUNDUP
NATIONAL WEATHER SERVICE EASTERN NORTH DAKOTA/GRAND FORKS ND
1100 PM CDT THU JUL 20 2017

 **SATELLITE DATA USED TO AUGMENT SKY COVER AT AUTOMATED STATIONS**
 *****  WEATHER ACROSS EASTERN NORTH DAKOTA  *****

CITY           SKY/WX    TMP DP  RH WIND       PRES   REMARKS
GRAND FORKS    CLOUDY    74  66  76 E7        29.91S
GRAND FORKS AF MOCLDY    71  64  77 NE5       29.92S
GRAND CITY NWS NOT AVBL
BUXTON         NOT AVBL
DEVILS LAKE    FAIR      79  65  62 S17       29.89F
FARGO          FAIR      75  68  78 SE7       29.93R
WAHPETON ARPT  FAIR      70  66  88 E5        29.94S
$$

 *****  WEATHER ACROSS CENTRAL AND WESTERN NORTH DAKOTA  *****

CITY           SKY/WX    TMP DP  RH WIND       PRES   REMARKS
JAMESTOWN      FAIR      76  66  71 SE12      29.88F
BISMARCK       FAIR      73  60  63 E12G20    29.84F
MINOT          MOCLDY    70  62  76 MISG      29.90R
MINOT AFB      FAIR      70  62  75 E12       29.87F
GARRISON         N/A     74  57  55 SE8G22    29.85R
WILLISTON      FAIR      78  59  51 E10       29.83S
DICKINSON      FAIR      70  60  70 SE14      29.80F
HETTINGER      FAIR      71  61  70 SE14      29.87R
$$

 *****  OTHER OBSERVATIONS NORTHEAST NORTH DAKOTA  *****

CITY           SKY/WX    TMP DP  RH WIND       PRES   REMARKS
WALHALLA       NOT AVBL
LANGDON        MOCLDY    66  64  94 E12       29.93F
CAVALIER       FAIR      70  63  78 E5        29.91F
GRAFTON        FAIR      70  64  83 E8        29.92F
CANDO          NOT AVBL
FORT TOTTEN      N/A     77  66  68 SE7       29.95
ROLLA            N/A     66  66 100 E5        29.91F
RUGBY          NOT AVBL
 ***** THE ABOVE OBSERVATIONS ARE NON NWS ARE NOT QUALITY
        CONTROLLED AND MAY MIS-REPORT RAIN FOR SNOW...
$$

 *****  OTHER OBSERVATIONS SOUTHEAST NORTH DAKOTA *****

CITY           SKY/WX    TMP DP  RH WIND       PRES   REMARKS
COOPERSTOWN    FAIR      72  68  88 SE7       29.92F
VALLEY CITY    FAIR      75  73  94 SE8       29.91F
OAKES          NOT AVBL
GWINNER        CLEAR     70  68  94 CALM      29.93F
SHEYENNE NWR     N/A     73  71  92 E2        29.95S
BUFFALO        NOT AVBL
WYNDMERE       NOT AVBL
 ***** THE ABOVE OBSERVATIONS ARE NON NWS ARE NOT QUALITY
       CONTROLLED AND MAY MIS-REPORT RAIN FOR SNOW...
$$

  *****  WEATHER ACROSS NORTHERN MINNESOTA  *****

CITY           SKY/WX    TMP DP  RH WIND       PRES   REMARKS
FLAG ISLAND    FAIR      68  63  83 CALM      29.95F HAZE
WARROAD        FAIR      63  61  94 CALM      29.96F
ROSEAU         MOCLDY    66  61  82 S3        29.97R
HALLOCK        FAIR      68  61  77 E7        29.92F
THF RVR FALLS  FAIR      69  60  73 E5        29.96F
HALSTAD          N/A     71  66  84 SE5         N/A
FOSSTON        FAIR      64  59  82 CALM      29.97S
BAUDETTE       FAIR      61  58  90 SE3       29.96F
WASKISH        FAIR      63  57  82 CALM      29.97F
CROOKSTON      FAIR      72  63  73 E8        29.92F
$$
  *****  WEATHER ACROSS CENTRAL AND WEST MINNESOTA  *****

CITY           SKY/WX    TMP DP  RH WIND       PRES   REMARKS
BEMIDJI        FAIR      66  61  82 E3        29.98S
PARK RAPIDS    FAIR      76  62  62 CALM      29.97F
WADENA         FAIR      66  66 100 CALM      29.98R
DETROIT LAKES  FAIR      73  68  83 S5        29.99R
MOORHEAD       FAIR      73  66  78 SE3       29.93F
FERGUS FALLS   FAIR      72  66  83 NE3       29.95R
ELBOW LAKE     FAIR      73  68  86 SE5       29.97R
MORRIS MN      FAIR      70  66  88 S6        29.96R
STAPLES        FAIR      68  66  94 CALM      29.97F
WHEATON        FAIR      68  64  88 E6        29.96R
$$
  *****  WEATHER ELSEWHERE ACROSS MINNESOTA  *****

CITY           SKY/WX    TMP DP  RH WIND       PRES   REMARKS
DULUTH         FAIR      67  61  81 W7        29.98S
INTRNTL FALLS  FAIR      55  53  93 CALM      29.97S
ELY            FAIR      61  57  88 CALM      29.99S
CLOQUET        FAIR      66  61  82 W3        29.98F
BRAINERD       FAIR      68  65  90 CALM      29.98S
HIBBING        FAIR      61  61 100 CALM      29.98S
ALEXANDRIA     FAIR      72  68  87 E6        29.98F
SAINT CLOUD    FAIR      67  67 100 NE3       29.97R
MINNEAPOLIS    MOCLDY    78  69  73 E7        29.95F
$$

  *****  WEATHER ACROSS SOUTH DAKOTA  *****

CITY           SKY/WX    TMP DP  RH WIND       PRES   REMARKS
SIOUX FALLS    FAIR      76  71  85 E7        29.95R
BROOKINGS      FAIR      76  67  73 E8        29.97R
WATERTOWN      FAIR      73  67  81 SE6       29.95S
HURON          FAIR      77  70  79 SE9       29.89F
SISSETON         N/A     70  68  93 S3        29.93R
ABERDEEN       FAIR      74  68  81 NE6       29.93R
MITCHELL       FAIR      76  73  91 E6        29.91R
PIERRE         NOT AVBL
MOBRIDGE       TSTM      71  67  87 N20G28    29.96R FOG
RAPID CITY     FAIR      80  59  48 SE7       29.90R
$$

  *****  SOME WEATHER IN NEARBY STATES *****

CITY           SKY/WX    TMP DP  RH WIND       PRES   REMARKS
GLASGOW MT     FAIR      78  48  34 E20G29    29.75S
GREAT FALLS MT FAIR      76  27  16 W15       29.89R
CHEYENNE WY    LGT RAIN  66  54  65 W20G33    30.23R
SCOTTSBLUFF NE FAIR      79  61  53 SE6       29.98R
OMAHA NE       MOCLDY    87  76  69 SE9       29.88F HX  97
DES MOINES IA  LGT RAIN  76  73  91 SE15      29.91F
DAVENPORT IA   MOCLDY    71  66  84 CALM      29.98R
CHICAGO IL     FAIR      76  69  79 CALM      29.97S
EAU CLAIRE WI  FAIR      68  67  96 CALM      29.97S
LA CROSSE WI   FAIR      73  70  90 SE3       29.97R
$$

  *****  SOME NATIONAL WEATHER *****

CITY           SKY/WX    TMP DP  RH WIND       PRES   REMARKS
LA GUARDIA NY  FAIR      80  69  69 NW6       29.87S
RALEIGH NC     MOCLDY    82  72  71 SW5       30.02R
ATLANTA GA     FAIR      81  74  79 NW8       30.06R
NEW ORLEANS LA FAIR      80  77  90 W5        30.04S
OKLAHOMA CITY  FAIR      84  69  60 S13       30.00R
ALBUQUERQUE NM MOCLDY    77  53  43 SE9       30.20R
SALT LAKE CITY MOCLDY    86  54  33 S17       29.97R
LOS ANGELES CA FAIR      69  63  81 W12       29.95S
BOISE ID       FAIR      81  36  19 N6        29.93S
SEATTLE WA     FAIR      66  52  60 W6        30.13R
$$

*** WEATHER ACROSS MANITOBA...SASKATCHEWAN AND ONTARIO ***
                ***ONTARIO***

CITY           SKY/WX    TMP DP  RH WIND       PRES   REMARKS
GERALDTON      PTCLDY    64  48  55 CALM      29.89R
THUNDER BAY    CLEAR     59  55  88 NW2       29.92S
SIOUX LOOKOUT  NOT AVBL
TORONTO        CLEAR     72  66  83 NW7       29.90S
BIG TROUT LK   CLEAR     52  39  62 N7        29.90R
PICKLE LAKE    NOT AVBL
DRYDEN         CLEAR     63  52  67 W7        29.96R
KENORA         CLOUDY    68  52  56 W5        29.98R
$$
                *** MANITOBA***

CITY           SKY/WX    TMP DP  RH WIND       PRES   REMARKS
BRANDON        PTCLDY    64  59  82 E7        29.91S
DAUPHIN        CLEAR     64  57  77 CALM      29.89R
ISLAND LAKE    NOT AVBL
PILOT MOUND      N/A     66  61  82 E8          N/A
THE PAS        MOCLDY    63  50  63 E5        29.95R
THOMPSON       PTCLDY    46  41  81 CALM      29.97R
WINNIPEG       MOCLDY    66  59  77 S6        29.94S
LYNN LAKE      CLEAR     54  39  58 NW6       29.98R
CHURCHILL      MOCLDY    48  41  76 SW8       29.84F
GILLAM         PTCLDY    59  41  51 NW9       29.91R
$$
                ***SASKATCHEWAN***

CITY           SKY/WX    TMP DP  RH WIND       PRES   REMARKS
ESTEVAN        MOCLDY    66  64  94 NE12      29.85F
KINDERSLEY     CLOUDY    66  57  72 E17G26    29.79R
LLOYDMINSTER   MOCLDY    63  61  94 E6        29.82R
PRINCE ALBERT  LGT RAIN  68  63  83 SE8       29.90R
REGINA         MOCLDY    72  59  64 SE14      29.85R
YORKTON        CLEAR     64  59  82 SE8       29.89R


USA.gov is the U.S. government's official web portal to all federal, state and local government web resources and services.